Regional Weather Roundup
Issued by NWS

Home | Current Version | Previous Version | Graphics & Text | Print | Product List | Glossary On
Versions: 1 2 3 4 5 6 7 8 9 10 11 12 13 14 15 16 17 18 19 20 21 22 23 24 25 26 27 28 29 30 31 32 33 34 35 36 37 38 39 40 41 42 43 44 45 46 47 48 49 50
000
ASUS43 KIND 281809
RWRIN

WEATHER ROUNDUP FOR INDIANA
NATIONAL WEATHER SERVICE INDIANAPOLIS IN
200 PM EDT SUN MAY 28 2017

NOTE: "FAIR" INDICATES FEW OR NO CLOUDS BELOW 12,000 FEET WITH NO
SIGNIFICANT WEATHER AND/OR OBSTRUCTIONS TO VISIBILITY.

* - STATION DOES NOT REPORT WEATHER SUCH AS PRECIPITATION OR FOG.

+ - STATION NOT QUALITY CONTROLLED BY THE NATIONAL WEATHER SERVICE.
    USE DATA WITH CAUTION...ESPECIALLY DEWPOINT AND RELATIVE
    HUMIDITY OBSERVATIONS.

INZ001>003-010>013-019-020-281900-
NORTHWEST INDIANA

CITY           SKY/WX    TMP DP  RH WIND       PRES   REMARKS
GARY /AIRPORT/ MOSUNNY   64  55  72 NE14      29.76R HAZE
KNOX *+        CLOUDY    75  50  41 W5        29.71F
LA PORTE +     MOSUNNY   73  65  77 N14       29.73F
6HR MIN TEMP:  60; 6HR MAX TEMP:  74;

MICHIGAN CITY+ SUNNY     66  61  82 N10       29.75S
MONTICELLO +   LGT RAIN  72  68  87 SW6       29.72F
6HR MIN TEMP:  61; 6HR MAX TEMP:  74; 6HR PCP:  0.02;

RENSSELAER +   PTSUNNY   77  55  47 W12       29.72F
VALPARAISO     CLOUDY    72  64  76 N9        29.73S
6HR MIN TEMP:  62; 6HR MAX TEMP:  77;


$$

LMZ046-743>745-281900-
SOUTHERN LAKE MICHIGAN

STATION/POSITION TIME  TEMP    WIND        PRES    WAVE
                       AIR SEA DIR/SP/G            HT
                 (UTC) (F)     (DEG/KT/KT) (MB)    (FT)
BURNS HARBOR     1740   59      60/ 10/ 11 1008.1R
MICHIGAN CITY    1740   56      20/  7/  9   N/A
5NW MICH CITY    1800   55 56   70/  8/ 10   N/A     1

$$

INZ004-005-014>016-021>024-281900-
NORTH CENTRAL INDIANA

CITY           SKY/WX    TMP DP  RH WIND       PRES   REMARKS
ELKHART        PTSUNNY   72  66  83 S5        29.71F
GOSHEN         PTSUNNY   74  63  68 S9        29.70F THUNDER
6HR MIN TEMP:  61; 6HR MAX TEMP:  77;

LOGANSPORT +   PTSUNNY   72  64  78 W8        29.73F
PERU/GRISSOM   LGT RAIN  73  68  83 W9        29.72F
6HR MIN TEMP:  62; 6HR MAX TEMP:  74; 6HR PCP: TRACE;

ROCHESTER +    PTSUNNY   77  68  73 S8        29.72F
SOUTH BEND     MOSUNNY   74  65  73 NW15      29.72S
6HR MIN TEMP:  63; 6HR MAX TEMP:  76;

WARSAW +       PTSUNNY   73  64  73 W8        29.71F

$$

INZ006>009-017-018-025>027-281900-
NORTHEAST INDIANA

CITY           SKY/WX    TMP DP  RH WIND       PRES   REMARKS
ANGOLA *+      PTSUNNY   72  70  94 SW5       29.72S
AUBURN +       PTSUNNY   73  63  68 SE3       29.70F
FORT WAYNE     CLOUDY    73  66  78 SW20      29.72F
6HR MIN TEMP:  62; 6HR MAX TEMP:  75;

HUNTINGTON +   CLOUDY    70  65  85 SW8       29.73F
KENDALLVILLE + PTSUNNY   77  64  63 SW10      29.71F

$$

INZ028-029-035-036-043>045-051>053-281900-
WEST CENTRAL INDIANA

CITY           SKY/WX    TMP DP  RH WIND       PRES   REMARKS
CRAWFORDSVL +  PTSUNNY  -17 -22  76 SW17      29.77S WCI -43
6HR MIN TEMP: -21; 6HR MAX TEMP: -15; 6HR PCP:  0.01;

GREENCASTLE +  CLOUDY    72  61  68 W3        29.79R
LAFAYETTE      PTSUNNY   71  69  93 SW7       29.73S
6HR MIN TEMP:  62; 6HR MAX TEMP:  74; 6HR PCP:  0.31;

TERRE HAUTE    CLOUDY    71  62  73 W12       29.78S
6HR MIN TEMP:  65; 6HR MAX TEMP:  74;


$$

INZ030>032-037>040-046>048-054>057-064-065-281900-
CENTRAL INDIANA

CITY           SKY/WX    TMP DP  RH WIND       PRES   REMARKS
CP ATTERBURY + CLOUDY    72  61  68 SW6       29.79S
COLUMBUS       CLOUDY    72  59  64 SW15      29.79S
FISHERS *+     CLOUDY    73  66  78 SW13      29.76
FRANKFORT +    PTSUNNY   78  67  67 W13G22    29.76F
6HR MIN TEMP:  66; 6HR MAX TEMP:  79;

GREENWOOD *+   CLOUDY    73  60  65 W14       29.79R
6HR MIN TEMP:  64; 6HR MAX TEMP:  73;

INDIANAPOLIS   CLOUDY    72  61  68 SW18      29.77R
6HR MIN TEMP:  65; 6HR MAX TEMP:  74;

-EAGLE CREEK   CLOUDY    73  61  65 SW13G20   29.76R
6HR MIN TEMP:  65; 6HR MAX TEMP:  75;

KOKOMO +       CLOUDY    76  65  68 W12       29.73F
6HR MIN TEMP:  62; 6HR MAX TEMP:  76;

MARION +       PTSUNNY   75  63  64 W16       29.74F
MT COMFORT *+    N/A    N/A N/A N/A MISG        N/A
SHELBYVILLE    CLOUDY    73  61  65 SW17      29.78R
6HR MIN TEMP:  66; 6HR MAX TEMP:  75; 6HR PCP: TRACE;

ZIONSVILLE +   PTSUNNY   73  63  70 SW14G24   29.76S
6HR MIN TEMP:  62; 6HR MAX TEMP:  74;


$$

INZ033-034-041-042-049-050-058-059-281900-
EAST CENTRAL INDIANA

CITY           SKY/WX    TMP DP  RH WIND       PRES   REMARKS
MUNCIE         PTSUNNY   76  62  62 SW9       29.75R
6HR MIN TEMP:  66; 6HR MAX TEMP:  76;

RICHMOND +     CLOUDY    72  61  68 SW18      29.79S

$$

INZ060-061-067>069-081>083-085>088-281900-
SOUTHWEST INDIANA

CITY           SKY/WX    TMP DP  RH WIND       PRES   REMARKS
EVANSVILLE     CLOUDY    73  62  68 W13       29.83S
6HR MIN TEMP:  67; 6HR MAX TEMP:  73;

HUNTINGBURG *+ CLOUDY    69  63  81 W13       29.83S
6HR MIN TEMP:  65; 6HR MAX TEMP:  71;

WASHINGTON +   PTSUNNY   74  62  65 W10       29.79F
6HR MIN TEMP:  65; 6HR MAX TEMP:  74;


$$

INZ062-063-066-070>080-084-089>092-281900-
SOUTH CENTRAL AND SOUTHEAST INDIANA

CITY           SKY/WX    TMP DP  RH WIND       PRES   REMARKS
BEDFORD +      CLOUDY    70  61  73 SW7       29.79F
BLOOMINGTON    CLOUDY    73  61  65 W12G18    29.79S
6HR MIN TEMP:  64; 6HR MAX TEMP:  74;

MADISON *+     CLOUDY    73  61  64 W10       29.83F
NORTH VERNON + CLOUDY    70  61  73 SW13      29.81F
SEYMOUR +      CLOUDY    73  63  68 SW10G16   29.79F

$$





USA.gov is the U.S. government's official web portal to all federal, state and local government web resources and services.